TimeEST,TemperatureF,Dew PointF,Humidity,Sea Level PressureIn,VisibilityMPH,Wind Direction,Wind SpeedMPH,Gust SpeedMPH,PrecipitationIn,Events,Conditions,WindDirDegrees,DateUTC
12:53 AM,39.0,37.0,93,30.27,-9999.0,Calm,Calm,-,N/A,,Unknown,0,2012-11-10 05:53:00
1:53 AM,37.9,36.0,93,30.27,-9999.0,Calm,Calm,-,N/A,,Unknown,0,2012-11-10 06:53:00
2:53 AM,37.0,35.1,93,30.27,-9999.0,Calm,Calm,-,N/A,,Unknown,0,2012-11-10 07:53:00
3:53 AM,36.0,34.0,93,30.27,-9999.0,Calm,Calm,-,N/A,,Unknown,0,2012-11-10 08:53:00
4:53 AM,35.1,32.0,89,30.27,-9999.0,Calm,Calm,-,N/A,,Unknown,0,2012-11-10 09:53:00
5:53 AM,34.0,32.0,92,30.29,-9999.0,Calm,Calm,-,N/A,,Unknown,0,2012-11-10 10:53:00
6:53 AM,34.0,30.9,89,30.31,-9999.0,Calm,Calm,-,N/A,,Unknown,0,2012-11-10 11:53:00
7:53 AM,42.1,37.9,85,30.33,-9999.0,NE,3.5,-,N/A,,Unknown,40,2012-11-10 12:53:00
8:53 AM,54.0,46.0,75,30.35,-9999.0,Calm,Calm,-,N/A,,Unknown,0,2012-11-10 13:53:00
9:53 AM,64.9,45.0,48,30.35,-9999.0,ENE,3.5,-,N/A,,Unknown,70,2012-11-10 14:53:00
10:53 AM,69.1,41.0,36,30.35,-9999.0,Variable,3.5,-,N/A,,Unknown,0,2012-11-10 15:53:00
11:53 AM,72.0,37.9,29,30.32,-9999.0,Variable,4.6,-,N/A,,Unknown,0,2012-11-10 16:53:00
12:53 PM,73.9,39.9,29,30.29,-9999.0,Variable,4.6,-,N/A,,Unknown,0,2012-11-10 17:53:00
1:53 PM,75.0,41.0,29,30.27,-9999.0,ENE,5.8,-,N/A,,Unknown,60,2012-11-10 18:53:00
2:53 PM,75.9,41.0,29,30.27,-9999.0,Calm,Calm,-,N/A,,Unknown,0,2012-11-10 19:53:00
3:53 PM,75.0,42.1,31,30.27,-9999.0,Calm,Calm,-,N/A,,Unknown,0,2012-11-10 20:53:00
4:53 PM,73.0,44.1,35,30.26,-9999.0,Calm,Calm,-,N/A,,Unknown,0,2012-11-10 21:53:00
5:53 PM,61.0,50.0,67,30.27,-9999.0,Calm,Calm,-,N/A,,Unknown,0,2012-11-10 22:53:00
6:53 PM,55.9,48.0,75,30.29,-9999.0,Calm,Calm,-,N/A,,Unknown,0,2012-11-10 23:53:00
7:53 PM,54.0,48.0,80,30.31,-9999.0,Calm,Calm,-,N/A,,Unknown,0,2012-11-11 00:53:00
8:53 PM,51.1,45.0,80,30.31,-9999.0,Calm,Calm,-,N/A,,Unknown,0,2012-11-11 01:53:00
9:53 PM,48.9,46.0,90,30.32,-9999.0,Calm,Calm,-,N/A,,Unknown,0,2012-11-11 02:53:00
10:53 PM,48.0,44.1,86,30.31,-9999.0,Calm,Calm,-,N/A,,Unknown,0,2012-11-11 03:53:00
11:53 PM,48.0,44.1,86,30.31,-9999.0,Calm,Calm,-,N/A,,Unknown,0,2012-11-11 04:53:00